Tracking 28790 objects as of 19-Apr-2024
HD Live streaming from Space Station
objects crossing your sky now

DMSP 5D-2 F13 DEB

Track DMSP 5D-2 F13 DEB now!
10-day predictions


NORAD ID: 42298
Int'l Code: 1995-015HQ
Perigee: 826.9 km
Apogee: 1,238.9 km
Inclination: 98.7 °
Period: 105.7 minutes
Semi major axis: 7403 km
RCS: Unknown
Launch date: March 24, 1995
Source: United States (US)
Launch site: AIR FORCE WESTERN TEST RANGE (AFWTR)

Note: This is SATELLITE DEBRIS
Your satellite tracking list
Your tracking list is empty




NASA's NSSDC Master Catalog

Two Line Element Set (TLE):
1 42298U 95015HQ  24107.30797603  .00005649  00000-0  56195-2 0  9996
2 42298  98.7138 137.3640 0278181 185.2306 174.5917 13.62738987425581
Source of the keplerian elements: AFSPC